Theta_e
314 313 314 315 314 317 320 321 324 328 333 329 325 322 318 322 323 322 323 321 321 321 319 319 320 319 319 319 319 319 319 322 322 323 326 326 320 318 320 318 321 319 320 322 324 327 328 329 330 330 330 330 330 330 330 329 328 328 328 330 329 328 329 325 322 321 319 320 319 320 319 320 320 320 320 319 319 318 319 318 318 317 320 328 332 333 335 335 333 331 327 326 327 329 329 328 326
313 313 314 313 315 321 322 323 329 338 337 322 320 321 317 325 323 322 325 323 323 320 319 320 320 320 319 319 319 319 319 320 319 320 322 321 319 319 318 317 320 320 319 320 323 325 327 329 329 330 330 330 330 329 329 328 327 327 328 331 329 327 327 324 322 321 319 319 319 320 320 322 322 322 321 320 320 319 319 320 319 318 321 328 332 334 335 335 333 330 326 326 328 330 330 330 329
313 313 313 314 319 322 325 326 332 338 332 318 320 325 320 321 322 324 325 321 321 319 320 321 320 320 319 320 319 320 320 320 320 320 321 320 320 320 319 317 318 320 320 319 321 323 326 328 329 330 330 330 329 328 328 327 327 327 328 331 328 325 325 323 321 320 319 320 320 321 322 324 323 322 321 321 321 320 321 323 321 320 324 327 330 334 335 335 332 327 325 325 328 330 330 331 331
313 313 314 317 321 324 332 331 337 337 325 320 320 324 324 322 324 323 321 319 320 320 320 320 320 320 320 320 320 320 319 320 320 320 321 321 322 320 319 317 317 319 320 319 319 321 324 326 328 329 329 329 329 328 328 327 327 327 329 330 327 324 324 322 321 320 319 320 321 321 323 324 322 322 323 324 323 322 322 323 322 324 329 329 330 334 335 335 330 323 323 324 326 328 329 330 330
312 314 314 319 323 323 331 328 333 331 321 326 320 321 327 324 324 320 318 320 320 320 319 320 320 320 320 320 320 319 319 320 320 320 320 320 320 318 317 317 316 318 320 320 319 319 322 325 326 328 329 329 329 328 327 327 326 326 328 329 326 323 323 322 321 320 320 321 321 322 323 322 323 324 326 328 326 325 324 324 324 328 332 331 332 334 335 333 326 321 321 322 323 324 326 327 328
315 317 315 319 321 319 328 324 325 329 326 331 323 321 325 320 321 318 318 320 319 320 319 320 320 320 319 320 320 319 319 320 319 319 318 318 318 317 317 317 316 316 319 320 320 319 320 323 325 326 328 328 329 328 327 327 326 326 326 327 326 324 322 321 320 321 321 322 322 322 323 323 327 329 328 329 327 325 326 326 326 329 332 332 332 332 332 330 324 321 319 319 320 320 321 322 324
320 321 318 321 320 318 330 326 325 332 325 324 323 324 320 317 318 317 319 319 320 320 319 320 319 320 319 320 320 320 320 319 318 318 317 317 317 317 317 317 316 316 318 320 320 320 319 320 323 325 326 327 328 328 327 327 326 326 326 327 326 325 323 322 321 322 322 323 323 325 326 325 329 331 330 330 327 325 325 326 327 329 331 331 330 330 329 327 323 320 317 314 315 316 316 317 318
321 321 318 326 329 326 331 324 328 332 322 318 320 321 316 317 318 319 320 318 320 319 320 321 319 320 319 319 319 320 319 319 319 317 317 316 316 317 317 317 316 315 316 319 320 321 319 319 320 323 325 326 328 327 327 327 327 326 327 327 327 326 324 323 323 323 322 323 325 327 330 328 328 330 330 331 327 324 325 326 326 327 328 328 328 327 326 324 322 320 316 313 312 313 313 313 313
320 321 318 325 332 333 335 328 326 324 322 321 317 318 316 318 319 319 320 318 319 319 320 320 319 320 319 318 319 320 319 320 318 317 317 316 316 315 315 316 316 316 316 317 319 320 320 320 319 320 322 324 326 327 327 327 327 326 327 327 327 326 325 325 325 325 324 323 324 325 328 328 328 331 331 332 329 326 325 326 326 326 326 327 327 326 326 324 322 319 315 313 311 311 311 311 311
321 321 318 326 332 331 331 330 327 321 322 321 316 318 318 318 319 319 319 318 318 318 320 320 319 320 318 319 319 320 320 320 319 317 317 316 316 315 315 315 315 316 316 316 317 319 320 320 319 318 319 321 324 325 327 327 327 326 326 327 327 327 326 327 328 328 327 325 325 324 326 326 326 330 331 332 330 327 327 327 327 327 325 325 325 325 325 324 323 319 313 312 311 310 310 310 310
322 319 319 330 333 326 326 327 328 326 325 320 317 318 317 318 319 318 318 318 318 317 319 319 319 319 318 319 319 320 319 321 319 317 317 316 316 316 316 315 315 316 316 316 316 318 319 320 320 319 318 319 320 322 325 326 326 326 326 326 327 327 327 328 329 330 329 328 327 327 327 326 326 329 332 332 331 329 329 329 329 327 324 322 321 319 319 319 321 318 312 311 310 309 310 309 309
322 324 331 335 328 325 327 326 325 329 331 324 319 319 318 318 319 319 318 317 317 316 318 319 318 318 318 318 319 320 319 321 320 318 318 317 316 316 316 316 315 315 316 316 316 316 318 319 320 320 319 318 319 319 322 325 325 324 324 325 325 326 327 329 329 330 330 329 329 328 327 326 326 330 332 333 331 331 331 331 329 326 324 322 318 315 313 314 316 313 310 311 309 308 308 307 306
321 325 333 329 324 325 324 325 329 332 333 324 317 319 318 317 318 318 317 317 316 316 318 319 318 318 318 319 318 318 319 319 320 320 318 317 317 316 316 316 316 315 315 315 316 316 316 318 319 320 320 319 319 319 320 323 324 323 323 323 323 324 326 328 329 329 330 329 329 328 327 324 324 329 332 333 332 331 331 330 328 326 324 321 315 312 311 311 311 310 310 309 308 306 305 305 304
319 322 327 322 324 328 321 324 329 325 325 323 318 317 317 317 318 317 317 317 316 316 318 319 318 317 317 317 317 318 319 319 319 319 319 318 317 316 316 316 316 315 315 315 315 315 316 316 318 319 320 320 319 319 319 321 321 322 322 321 320 321 323 325 326 328 328 329 330 329 327 324 323 328 332 332 332 332 331 329 327 325 324 319 312 309 310 311 310 309 309 307 306 304 304 304 304
318 320 326 326 325 328 324 322 324 321 320 323 320 316 317 317 317 317 317 317 317 317 318 318 317 317 317 316 317 318 318 317 317 318 319 318 317 316 316 316 316 316 315 315 315 315 316 316 316 317 319 320 320 319 319 318 319 319 319 320 320 320 321 322 323 325 327 328 330 329 328 325 324 328 331 332 331 331 331 328 326 324 321 316 310 307 309 310 309 307 306 305 304 303 304 304 304
317 318 326 328 325 325 324 321 324 325 318 318 318 316 317 316 317 317 317 318 317 317 317 318 317 317 317 316 316 316 316 316 317 317 318 318 317 317 317 317 316 316 315 315 315 315 315 315 316 316 317 318 319 320 319 319 318 317 317 318 319 319 319 320 320 322 324 326 327 328 327 325 325 328 330 331 331 331 330 328 326 323 318 313 309 307 307 307 307 305 304 304 304 304 304 304 305
315 320 326 326 326 325 326 323 322 322 318 318 317 316 317 316 317 316 317 317 317 317 317 317 317 317 316 316 316 316 316 316 316 317 317 318 317 317 317 317 316 316 316 315 315 315 315 315 315 315 316 317 318 319 320 320 319 318 317 316 318 319 318 318 319 319 320 320 321 325 325 323 325 328 330 330 331 330 329 327 325 320 314 311 308 306 306 305 305 304 304 304 304 304 304 305 307
318 326 324 322 328 327 328 325 317 317 318 317 316 316 316 317 317 316 317 317 316 316 315 316 316 316 316 316 316 316 316 315 316 316 317 318 317 317 317 317 317 317 316 316 315 315 315 315 315 315 315 316 316 317 318 319 319 319 317 316 317 317 318 318 318 318 317 316 317 320 321 320 324 328 330 330 331 328 325 324 321 317 313 311 309 306 305 304 304 304 304 303 304 304 305 306 307
321 327 322 327 335 326 321 320 315 316 317 316 316 316 316 316 317 316 317 316 315 316 315 316 315 315 315 315 316 315 316 315 316 315 316 317 317 317 317 317 317 317 317 316 316 316 315 315 315 315 315 315 315 316 316 318 319 319 319 318 317 317 317 317 317 317 316 315 314 316 316 317 323 328 329 329 329 327 324 323 319 315 313 312 309 307 305 304 304 304 304 304 304 304 305 306 307
319 321 324 334 330 319 317 317 316 317 316 315 316 316 315 317 317 316 316 315 315 315 315 315 315 316 315 315 315 315 316 315 316 316 316 316 317 317 317 317 317 317 317 317 317 316 315 315 315 315 315 315 315 316 316 316 317 318 319 319 318 317 317 317 316 316 316 315 314 314 314 317 323 327 327 328 328 327 324 321 317 314 312 312 310 307 305 304 304 303 304 304 304 304 305 307 306
318 319 327 330 319 317 320 317 318 318 316 316 315 316 315 316 317 316 315 316 316 315 315 315 315 315 315 316 315 315 316 315 316 316 316 316 317 317 316 317 316 317 317 317 317 315 314 314 314 315 315 315 315 315 315 315 316 316 317 318 319 318 317 317 316 316 316 316 316 314 314 317 322 324 325 326 326 325 322 318 315 313 311 311 310 307 305 304 304 303 303 303 304 304 305 307 306
319 320 322 321 316 318 319 317 319 317 316 316 315 315 316 316 317 316 316 316 316 314 315 316 315 316 315 316 315 315 315 315 316 316 316 316 316 317 316 317 316 316 317 317 316 315 314 314 314 315 315 315 315 315 315 315 315 316 316 317 318 318 317 317 316 316 315 315 316 316 314 317 322 323 322 322 322 321 319 316 313 312 311 310 309 308 306 304 304 303 303 303 304 304 305 306 306
320 320 317 317 317 317 318 318 318 316 315 314 314 316 315 315 315 315 315 315 316 315 316 315 316 316 315 316 315 316 315 315 316 316 316 316 316 316 316 316 316 316 316 316 316 316 315 314 314 314 315 315 315 315 315 315 315 315 316 317 317 317 317 317 317 316 315 314 315 316 314 315 320 322 322 321 320 318 316 315 313 312 311 310 309 308 306 305 304 303 303 303 304 304 305 306 307
319 321 317 317 317 316 317 317 316 316 314 314 315 314 313 314 315 315 314 315 316 316 316 315 316 316 315 316 315 315 316 315 315 315 315 315 316 316 316 316 316 316 316 316 316 316 315 315 314 315 315 315 315 315 315 315 314 315 316 317 318 318 318 317 317 316 315 315 314 315 315 315 317 320 321 320 318 316 315 314 313 312 311 310 309 308 306 305 304 304 303 303 304 304 304 306 306
318 319 315 315 315 315 316 315 315 315 315 315 315 313 313 313 313 313 314 316 316 316 316 316 316 316 315 315 315 315 314 314 315 315 315 315 315 315 315 315 316 316 316 316 316 315 315 315 315 315 315 315 316 316 316 315 314 315 315 316 317 318 318 318 317 317 316 315 315 315 315 316 316 317 316 315 315 314 314 314 313 312 312 311 310 308 307 305 304 304 303 303 304 304 304 305 306
315 315 313 313 313 314 315 314 315 315 314 314 313 313 313 313 313 313 315 316 317 317 316 316 316 315 316 314 313 313 313 314 314 315 315 314 315 314 315 315 315 316 316 317 316 316 316 315 316 315 316 316 317 317 317 316 315 315 315 315 317 318 319 319 319 319 318 317 316 315 315 315 317 317 316 315 314 314 313 314 313 313 313 312 311 310 308 306 304 303 303 303 304 304 304 305 306
314 313 313 313 313 314 314 314 315 314 314 313 313 313 313 312 313 314 316 317 317 316 316 316 316 315 315 313 313 313 313 314 314 314 314 314 314 314 314 315 315 315 316 317 317 316 316 316 316 316 316 317 317 318 318 318 317 316 316 316 317 318 319 320 321 320 320 319 318 318 317 317 317 317 318 317 316 315 315 314 314 314 314 313 312 311 309 306 304 303 303 302 303 304 304 304 305
313 312 314 314 313 314 313 313 314 313 314 314 313 313 313 312 313 316 316 317 317 316 316 316 315 314 313 312 313 313 313 313 313 314 314 314 314 314 314 315 315 315 315 316 316 316 316 317 317 317 317 317 318 318 318 318 318 318 318 318 319 319 320 321 322 322 322 322 321 321 320 320 320 320 320 318 317 316 316 316 316 315 315 314 313 312 310 307 305 303 303 302 302 303 303 303 304
313 313 315 315 313 315 314 313 313 312 314 314 312 314 316 315 315 317 316 317 317 315 316 315 313 313 312 312 313 313 313 313 313 313 313 313 314 314 314 314 315 315 315 315 316 316 317 317 317 317 317 318 318 319 320 320 320 320 320 320 321 322 322 322 323 323 323 323 323 323 322 322 323 323 323 321 319 317 317 317 316 316 315 314 313 313 311 309 306 304 303 302 302 303 303 303 304
315 313 313 315 315 317 315 312 313 312 313 313 312 316 323 321 315 316 317 316 316 316 315 312 312 312 312 312 313 313 313 313 313 313 313 313 313 313 313 314 314 315 315 315 316 316 316 316 316 316 316 317 318 320 321 322 322 322 322 322 323 324 325 325 324 324 325 325 325 325 324 323 323 323 323 323 321 319 318 318 317 317 316 315 314 313 313 311 307 304 303 302 302 302 303 303 303
315 312 315 316 315 321 319 312 313 315 314 313 313 317 322 322 316 315 317 316 315 315 313 311 312 313 312 312 312 312 312 312 312 312 312 312 312 313 313 313 314 314 315 315 316 316 315 315 314 314 316 317 319 321 322 323 323 323 323 324 324 325 326 327 327 326 326 326 326 326 325 324 324 323 324 325 324 322 321 319 319 319 318 317 316 314 314 313 309 305 303 302 302 302 303 303 303
318 313 323 323 315 321 321 312 313 316 315 311 313 318 319 318 315 315 317 316 315 313 311 311 312 312 312 312 311 311 311 311 311 311 312 312 312 312 312 313 313 313 314 314 314 314 314 314 314 314 315 317 319 321 323 324 324 324 325 325 326 326 327 327 327 327 327 327 327 326 325 325 325 325 325 325 325 325 323 322 321 321 320 319 318 316 316 315 312 307 305 303 302 302 302 302 303
324 316 322 326 317 318 318 315 314 313 314 312 312 317 317 316 314 315 317 315 314 312 310 311 312 312 311 310 310 310 309 310 310 311 311 311 311 311 311 312 312 312 312 313 313 314 314 314 314 315 315 317 318 320 323 324 325 325 325 325 325 326 326 326 327 327 327 327 327 326 326 325 325 325 325 325 325 325 324 324 323 323 322 321 319 318 317 317 315 311 308 305 304 302 302 302 302
326 319 318 322 319 315 316 319 315 312 314 314 314 314 315 316 313 314 316 314 313 311 310 311 311 310 309 309 309 308 309 309 309 309 309 310 310 310 310 310 311 311 312 312 313 314 315 315 316 315 316 317 317 319 322 324 325 325 326 326 325 325 325 326 326 326 326 326 326 326 326 326 325 325 325 325 325 324 324 324 324 324 323 322 321 320 318 318 317 315 313 310 307 305 303 302 302
325 322 318 319 319 316 316 319 317 315 316 316 317 316 315 316 313 312 314 313 313 312 309 310 310 308 308 308 307 307 307 307 307 307 307 307 308 308 309 309 309 310 311 312 313 314 314 316 316 316 316 316 317 318 320 321 323 324 325 325 324 324 324 324 325 325 326 326 326 326 326 326 326 326 325 325 324 324 324 324 324 323 323 323 322 321 320 319 318 317 317 315 313 309 306 304 303
320 319 318 318 318 317 316 316 315 313 315 316 317 317 316 317 316 313 311 312 312 311 310 309 308 306 306 306 305 305 305 305 305 305 306 307 307 307 308 309 309 310 310 311 312 312 312 313 314 315 315 315 316 316 316 319 322 323 323 323 323 323 323 323 324 324 324 325 325 325 325 325 325 325 325 325 324 324 324 323 323 323 322 322 322 321 321 320 319 319 318 317 316 313 310 307 305
315 315 315 316 316 316 314 316 317 312 314 319 317 316 317 318 316 312 309 312 311 309 308 307 305 305 304 304 304 304 304 303 304 305 306 306 307 307 307 308 309 309 310 310 310 310 310 310 311 311 312 312 313 314 315 317 319 321 321 322 322 322 322 323 323 323 323 323 324 324 324 324 324 324 324 324 323 323 323 322 322 322 322 321 321 321 320 319 319 318 318 318 317 315 313 310 307
313 314 315 316 316 316 315 317 317 312 313 320 319 315 318 318 314 309 308 311 309 306 307 305 304 304 303 303 303 303 303 303 304 305 306 307 307 307 307 308 308 309 308 308 308 308 309 309 309 309 309 310 310 311 313 314 317 319 320 320 320 321 321 321 321 321 321 321 322 322 322 322 322 322 322 322 322 321 321 321 321 321 321 320 320 320 319 319 318 318 318 318 317 315 314 312 309
314 315 315 317 318 318 318 318 317 315 314 321 321 315 317 317 311 308 307 307 306 305 305 304 304 303 303 303 302 303 303 304 305 306 307 307 307 307 308 308 308 308 308 308 308 308 308 308 308 308 308 308 308 308 309 311 313 315 317 318 318 319 319 319 319 319 319 319 319 320 320 320 320 319 320 320 320 319 319 319 319 319 319 319 318 318 318 318 318 318 317 317 317 315 314 312 310
316 317 316 318 317 317 321 320 319 317 314 317 318 315 317 314 309 308 306 305 305 304 304 304 303 303 302 302 302 302 303 303 304 305 306 307 308 308 308 308 308 308 308 308 308 308 308 308 307 307 307 307 307 307 308 308 309 311 312 313 314 314 315 316 316 316 316 316 315 316 316 317 317 317 317 317 317 317 317 317 317 317 317 317 317 316 316 317 317 317 317 317 316 315 314 312 311
320 320 318 318 318 318 320 319 318 319 316 316 314 318 325 319 313 311 307 305 305 304 303 303 302 302 302 301 301 302 302 302 303 305 306 307 308 308 308 308 308 308 308 308 308 308 308 308 307 307 307 307 307 307 307 307 307 308 309 310 310 310 310 310 310 309 309 309 309 310 310 311 311 312 313 313 314 314 314 314 314 314 315 315 315 315 315 315 315 315 315 315 314 314 313 312 311
321 323 320 317 319 319 319 318 318 321 321 317 313 320 331 327 317 313 309 307 305 304 303 302 302 301 301 301 300 300 301 301 302 303 304 306 307 307 308 308 308 308 308 308 307 308 308 308 307 307 308 307 307 307 307 307 307 307 307 307 307 308 307 307 307 306 306 306 306 306 306 306 306 307 307 308 309 310 310 310 310 311 312 312 313 313 313 313 314 314 313 313 312 312 312 311 310
319 321 320 319 320 319 319 317 317 322 323 316 313 317 325 326 319 314 311 309 306 303 302 301 301 301 300 300 299 299 300 300 301 302 303 305 306 307 307 307 307 307 307 307 307 307 307 307 307 307 307 307 307 307 307 307 307 307 306 306 306 306 306 306 306 305 305 305 305 304 304 304 304 304 304 304 305 305 306 306 307 307 308 309 310 311 311 311 311 312 312 311 310 310 310 309 309
322 320 320 322 320 318 319 316 316 320 318 318 318 315 316 319 317 313 311 311 307 304 303 301 300 299 299 299 299 299 299 300 301 302 303 305 305 306 306 306 306 306 306 306 306 306 306 306 306 306 307 307 307 307 307 307 307 306 306 306 305 305 305 305 305 305 305 304 304 304 303 303 303 303 303 303 303 303 303 304 304 305 305 306 307 308 309 309 310 310 310 309 309 308 308 307 307
323 319 318 319 317 318 319 316 317 317 313 320 323 315 314 319 320 315 311 312 311 306 303 301 299 299 298 298 298 298 298 299 300 302 303 303 304 305 305 305 305 305 305 305 305 305 305 305 305 305 306 306 306 306 306 306 306 306 306 305 305 305 304 304 304 304 304 304 303 303 303 303 303 303 302 302 302 302 302 302 302 302 303 303 304 305 306 307 308 308 308 308 307 307 306 306 306
316 315 318 320 320 320 318 316 319 317 314 320 322 316 316 321 325 321 313 313 314 307 303 301 299 298 298 297 297 297 298 299 300 301 302 302 303 304 304 304 304 304 304 304 304 304 304 304 305 305 305 305 305 305 305 305 305 305 305 305 304 304 303 303 303 303 303 303 303 303 302 302 302 302 302 302 302 302 302 302 301 301 301 301 301 302 303 303 305 306 307 307 307 306 306 305 305
310 315 321 324 325 322 320 320 319 317 318 322 320 317 317 320 327 324 314 313 312 306 303 300 298 297 297 297 297 297 298 299 300 301 301 302 303 303 303 304 304 304 304 304 304 304 304 304 304 304 304 304 304 304 304 304 304 304 304 304 303 303 303 302 302 302 302 302 302 302 302 302 302 301 301 301 301 301 301 301 301 301 300 300 300 300 300 301 302 302 304 305 305 306 306 305 304
312 320 322 322 325 324 323 322 319 318 324 326 320 316 314 318 325 320 310 307 307 306 303 300 298 297 296 297 297 297 298 299 300 301 301 302 303 303 303 303 303 303 303 303 303 303 303 303 303 303 303 303 303 303 303 303 303 303 302 302 302 302 301 301 301 301 301 301 301 301 300 301 301 301 300 300 301 301 301 301 300 300 300 300 300 299 299 299 300 300 301 301 302 303 304 304 304
316 320 320 321 322 321 323 322 319 321 323 320 317 315 315 319 319 310 304 303 304 304 302 299 298 296 296 297 297 298 298 299 300 302 302 302 303 303 303 303 303 302 303 302 302 302 302 302 302 302 302 301 301 301 301 301 301 301 300 300 300 300 300 299 299 299 299 299 299 299 299 299 299 299 300 300 300 300 300 300 300 300 300 300 299 299 299 299 299 299 300 300 300 300 301 301 302
315 316 320 322 321 321 326 323 318 320 321 316 315 316 318 322 315 304 301 301 300 301 300 298 297 296 296 297 297 298 299 301 301 302 303 303 302 302 302 302 302 302 301 301 301 301 301 301 300 301 300 300 300 300 299 299 299 298 298 298 297 297 297 297 297 297 297 297 297 297 297 297 297 297 297 297 297 298 298 299 299 299 299 299 299 299 299 299 298 299 299 299 299 299 299 299 300
313 317 318 320 323 326 327 325 321 322 323 318 314 316 323 325 313 301 299 299 297 299 298 297 297 296 297 297 298 299 300 301 302 302 302 302 302 301 301 301 301 301 300 300 300 300 299 299 299 299 298 298 298 297 297 297 296 296 295 295 295 294 294 294 294 294 294 294 294 294 294 293 293 293 293 293 294 294 295 296 296 297 297 298 298 298 299 299 298 298 298 298 298 299 298 299 299
312 314 316 317 322 324 321 321 322 320 321 319 317 319 319 314 305 299 299 298 297 297 297 296 296 296 296 297 298 299 300 301 301 301 301 301 300 300 300 300 300 299 299 299 299 298 298 298 297 297 296 296 296 295 295 294 294 293 293 293 293 292 292 292 292 292 291 291 291 291 291 290 290 290 290 290 291 291 292 292 293 293 294 295 295 296 296 296 297 298 298 298 298 298 297 298 298
314 312 318 319 317 319 319 319 317 315 317 318 318 319 313 308 306 301 300 300 298 297 296 296 296 296 296 297 298 299 300 301 300 300 300 300 300 299 299 299 299 298 298 298 297 296 295 295 294 294 294 293 293 293 292 292 291 291 291 291 291 291 291 291 291 290 290 290 290 290 290 289 289 289 289 289 289 289 290 290 290 290 291 291 292 292 293 293 293 294 295 296 297 297 297 297 297
317 316 319 316 314 318 321 320 318 317 318 317 318 319 315 314 313 303 300 301 300 298 297 296 296 296 297 297 299 299 300 300 300 300 300 299 299 299 298 298 298 297 297 296 295 294 293 292 292 291 291 291 291 291 291 290 290 290 290 290 290 290 290 290 290 290 289 289 289 289 289 289 289 289 289 289 289 289 289 289 289 289 289 289 290 290 290 291 291 291 291 292 292 294 295 296 296
315 316 315 314 317 321 319 318 319 319 317 318 321 319 315 316 315 308 305 304 300 299 298 297 296 296 297 298 298 299 300 300 300 299 299 298 298 298 297 297 296 295 295 294 293 293 293 293 292 291 291 290 290 290 290 290 290 290 290 290 290 290 289 289 289 289 289 289 289 289 289 289 289 289 289 289 289 289 289 289 289 289 289 289 289 289 289 289 289 289 290 289 290 290 291 292 293
310 312 312 314 318 320 318 316 318 319 316 317 319 317 317 319 317 315 311 304 299 300 300 298 297 297 298 299 300 300 300 300 299 299 298 298 298 297 297 297 297 296 296 295 293 293 292 291 291 290 290 290 290 290 290 290 290 290 290 290 290 290 290 290 290 290 290 290 290 289 289 289 289 289 289 289 289 289 289 289 289 289 289 289 289 289 289 289 289 289 289 289 289 289 289 289 289
313 315 315 316 315 316 317 315 316 319 318 318 316 314 319 319 311 312 311 303 299 300 300 298 297 298 300 301 301 301 300 300 299 298 298 298 298 298 298 297 296 294 292 291 290 290 290 290 290 290 290 290 290 290 290 290 290 290 290 290 290 290 290 290 290 289 289 289 289 289 289 289 289 289 289 289 289 289 289 289 289 289 289 289 289 289 289 289 289 289 288 288 288 288 288 288 288
321 320 318 318 317 317 316 315 316 317 317 318 316 314 318 315 307 306 307 301 299 299 298 298 298 300 302 301 302 301 300 300 299 298 298 298 298 298 296 294 291 290 289 289 289 290 290 290 290 290 290 290 290 290 290 290 290 290 290 290 290 289 289 289 289 289 289 289 289 289 289 289 289 289 289 288 288 288 288 288 289 289 289 289 289 289 289 289 289 289 289 289 289 288 288 288 288
Wind_Speed
9 8 8 7 7 6 5 5 1 2 4 2 2 0 2 3 0 2 0 1 1 2 1 1 3 3 1 1 2 3 3 4 4 2 2 3 3 2 2 2 2 2 7 10 12 16 18 19 19 19 18 19 19 19 18 18 16 15 14 14 13 14 14 15 16 15 15 13 12 11 10 9 8 8 8 8 8 9 9 8 8 7 8 8 8 7 6 6 5 4 2 3 3 2 3 4 4
9 7 7 5 5 3 2 4 2 3 5 3 2 1 2 3 2 3 5 4 3 1 1 0 1 3 3 2 3 2 3 5 5 3 3 4 2 2 2 1 2 2 5 9 11 14 17 19 19 18 18 18 18 18 18 18 16 14 14 15 14 14 14 15 15 15 14 13 11 10 10 8 7 7 7 8 9 9 10 9 9 9 9 9 9 8 7 7 6 5 3 3 4 4 4 4 5
8 6 6 3 3 2 2 4 3 2 4 3 3 3 1 1 1 6 8 5 4 2 2 1 1 2 2 1 2 1 1 3 6 5 3 4 3 3 2 2 3 4 4 6 10 12 15 18 19 19 17 17 17 17 17 17 15 14 14 15 14 14 15 15 15 14 13 12 11 11 10 8 7 6 6 8 9 10 10 10 10 10 9 9 9 9 8 8 7 5 4 4 5 5 4 5 5
6 4 3 1 2 4 3 3 2 4 3 2 1 4 2 3 5 7 7 4 4 3 1 1 1 1 1 2 2 2 3 3 4 4 3 3 3 4 4 3 4 5 5 5 7 10 13 16 18 19 18 17 17 17 16 16 15 14 14 15 15 15 16 16 15 14 13 12 11 11 9 8 6 6 6 8 9 10 10 10 11 10 10 10 10 9 9 10 8 5 4 5 6 6 5 5 6
4 3 3 3 3 2 3 3 2 4 2 4 2 4 5 6 6 6 5 3 4 1 0 1 1 2 4 5 3 1 3 4 3 3 2 3 4 5 4 3 5 5 6 5 6 8 12 15 17 18 18 18 17 17 16 15 14 14 14 15 15 16 16 16 15 14 13 13 12 11 10 8 5 5 7 7 8 10 10 10 11 11 11 11 11 11 10 9 7 5 5 6 7 7 7 7 7
3 3 3 5 5 2 2 3 1 1 4 5 3 6 6 6 6 3 1 4 4 1 0 1 0 2 4 4 4 3 3 2 2 3 3 3 3 4 3 3 5 5 6 6 6 6 9 14 16 18 18 18 18 18 17 16 15 14 15 15 16 16 16 16 15 15 14 13 13 12 10 7 6 6 8 8 9 10 11 11 12 12 12 12 12 12 11 9 7 7 7 7 8 8 8 9 9
2 2 4 4 4 3 4 2 2 3 4 5 5 6 7 7 5 2 3 3 1 0 1 1 1 1 3 2 3 5 5 5 3 2 2 2 2 3 3 2 4 5 7 7 7 6 7 12 15 17 18 19 19 19 18 17 16 15 16 16 16 17 17 17 16 15 14 14 13 11 10 8 8 9 10 10 10 10 11 11 12 12 12 12 12 12 11 10 10 10 9 8 9 10 9 10 10
3 3 5 3 2 4 4 1 3 3 3 4 4 5 7 7 4 2 2 1 1 1 3 3 1 0 2 1 3 5 6 8 5 3 2 1 2 3 4 2 2 5 7 8 8 7 7 10 13 16 17 19 19 19 18 17 17 16 17 17 18 17 17 18 17 16 15 14 14 12 11 9 9 11 12 13 12 12 11 10 11 11 11 11 11 12 12 13 13 14 11 9 9 10 10 10 10
5 4 4 3 2 3 2 2 3 3 4 5 3 3 3 5 4 2 1 1 1 1 4 4 2 1 3 4 6 6 6 7 6 4 2 1 1 3 4 3 2 3 6 8 9 9 9 9 11 14 16 18 19 19 18 18 18 17 18 18 19 18 18 18 17 17 16 15 15 14 13 11 11 13 14 14 14 14 12 10 9 9 10 11 12 13 14 15 15 15 11 8 10 11 11 10 10
5 5 3 3 3 3 4 3 2 2 5 6 5 3 1 3 4 3 2 1 2 3 3 3 3 4 5 5 8 6 5 7 8 6 4 2 1 3 4 4 3 2 4 7 9 10 10 10 11 13 15 18 19 19 18 18 18 18 19 19 19 19 19 19 18 17 17 16 15 15 14 12 13 15 16 15 15 15 13 11 10 9 10 11 12 13 15 16 17 17 11 7 9 10 10 10 9
4 5 2 3 4 2 1 3 4 4 6 6 5 3 2 3 3 3 3 1 2 4 2 2 3 4 5 6 7 5 5 6 9 7 6 5 3 2 3 4 4 2 4 5 8 10 12 12 11 12 14 17 18 18 19 19 19 19 19 20 20 20 20 19 18 18 18 17 17 16 15 13 13 16 17 17 17 15 13 12 11 11 10 11 12 14 16 17 18 18 12 8 9 9 9 9 8
3 3 3 4 2 2 3 3 5 6 6 5 3 2 2 2 2 1 1 1 3 5 3 3 1 3 3 3 6 10 10 7 9 9 7 7 6 4 3 4 4 4 4 5 7 9 11 13 13 13 14 16 17 18 19 19 20 19 19 20 20 20 20 20 19 19 18 18 18 17 16 14 15 17 18 18 17 15 13 13 13 12 11 12 14 15 16 16 17 17 12 9 9 8 8 8 8
3 0 4 2 2 2 2 3 5 4 5 3 3 2 2 3 2 1 0 0 3 4 4 2 1 3 3 6 11 15 12 5 7 9 10 9 9 7 5 5 6 5 5 6 7 8 11 13 15 15 14 15 17 18 19 20 20 20 20 20 20 20 20 21 20 19 19 19 19 17 16 16 17 19 19 19 17 15 14 14 13 12 12 13 14 15 15 14 14 12 9 9 9 8 8 8 7
3 2 4 1 1 0 2 2 3 3 3 4 3 2 2 3 4 4 2 2 4 2 1 2 3 5 4 6 9 9 6 4 6 9 11 12 11 9 7 7 8 8 7 7 7 8 10 12 14 16 15 16 17 17 18 20 21 21 21 21 20 20 20 21 21 20 20 20 20 19 18 18 19 21 20 19 18 17 16 14 13 12 12 14 14 14 13 14 11 8 8 9 9 8 8 8 7
3 2 4 2 2 3 2 2 1 4 1 4 3 4 4 4 4 6 4 2 4 3 3 4 5 5 3 4 7 9 10 13 13 12 13 13 13 11 10 10 10 11 9 9 9 10 11 12 13 15 17 17 17 18 18 19 20 21 21 22 21 21 20 21 21 22 22 22 21 20 19 19 20 22 21 20 20 19 17 15 14 13 13 14 14 12 12 13 9 7 8 9 9 9 9 8 7
2 2 4 2 1 2 2 2 1 3 3 4 4 7 5 5 3 5 6 4 6 7 7 8 8 8 10 12 16 18 18 20 19 17 15 15 14 14 14 14 13 13 12 11 11 12 12 13 13 15 17 18 19 19 18 19 20 21 21 22 22 22 21 21 22 22 22 22 21 20 20 20 20 22 22 22 21 20 19 17 15 14 13 14 13 12 11 10 7 8 9 9 9 10 9 9 8
2 2 4 2 1 2 3 3 2 1 5 6 8 7 3 5 4 4 7 7 10 13 14 14 14 15 18 20 21 21 20 20 20 18 17 17 17 17 17 16 15 15 14 13 13 14 14 14 15 15 16 18 19 20 20 20 20 21 22 22 23 23 23 22 22 22 22 22 22 21 21 22 21 22 23 23 22 21 20 17 16 15 13 14 14 12 10 8 7 9 9 9 10 10 10 9 8
1 2 3 1 3 3 4 6 3 1 4 6 9 6 2 5 7 6 6 8 12 16 21 22 19 21 22 21 20 19 19 17 15 15 16 18 20 20 20 19 17 16 15 15 14 15 16 16 16 17 17 18 19 20 21 21 21 22 23 23 24 25 24 24 23 23 22 22 22 22 22 23 23 23 24 24 23 22 19 17 17 16 14 14 14 12 10 8 8 9 9 10 10 10 10 9 8
3 3 2 3 5 5 5 5 4 2 4 8 8 6 4 8 10 8 4 8 12 12 21 27 25 25 22 18 17 17 18 17 16 15 16 17 19 21 22 21 20 18 18 17 16 16 16 17 18 18 18 18 20 20 21 22 23 23 23 24 25 26 26 25 25 24 23 22 22 23 23 23 23 24 24 24 23 21 19 18 17 17 16 15 15 13 12 10 9 10 10 10 11 10 10 9 9
3 3 2 6 7 5 8 10 10 7 7 8 9 8 9 14 13 7 4 9 11 10 17 23 26 28 24 20 18 19 20 19 20 20 18 18 19 21 22 23 22 21 20 18 16 17 18 18 18 19 19 19 20 21 21 22 23 23 24 25 25 27 27 27 26 26 25 24 23 23 24 24 24 24 25 24 23 22 21 20 19 18 17 16 16 15 14 11 10 11 11 11 11 11 11 10 9
3 4 4 6 4 3 10 13 12 11 10 11 13 11 12 17 14 9 7 7 9 13 19 21 25 32 30 26 24 23 22 21 22 22 21 21 21 22 22 22 22 21 21 19 17 17 18 17 17 18 20 21 21 22 22 23 23 24 24 25 26 27 28 28 27 27 26 25 24 24 24 25 25 25 25 25 24 23 22 21 20 19 18 17 16 16 15 13 11 12 12 12 12 12 12 11 11
3 5 8 8 4 3 10 12 11 14 15 16 14 9 10 14 13 12 8 6 11 20 26 26 28 31 29 27 25 24 24 24 24 23 22 22 22 22 21 21 21 20 21 20 19 17 16 16 16 17 19 21 22 23 23 23 23 24 24 24 26 27 28 28 28 28 27 26 26 25 25 26 26 26 26 26 25 24 24 22 21 20 18 17 17 17 17 15 13 13 13 13 14 13 13 13 12
4 5 7 11 11 8 13 14 12 16 15 14 12 10 13 13 14 15 11 17 24 29 29 27 27 25 23 23 21 21 22 23 23 22 21 21 20 20 20 20 19 19 20 20 18 17 16 15 15 16 17 19 20 22 23 23 24 24 24 24 25 26 27 28 29 29 28 27 27 26 26 27 27 27 26 26 26 25 25 24 22 21 19 18 18 18 18 17 15 14 14 15 15 15 15 15 14
6 5 6 10 11 10 14 14 15 18 17 18 17 16 16 11 12 13 19 30 32 27 24 22 22 22 21 20 19 20 20 20 20 20 21 21 21 21 22 21 20 20 20 19 17 17 16 15 15 15 15 16 17 20 23 24 24 24 24 24 25 25 26 27 27 28 28 28 28 28 27 27 28 28 28 28 27 27 26 25 24 22 21 19 18 18 18 18 16 15 15 17 17 16 16 16 15
6 5 5 7 8 10 14 15 19 22 22 23 19 17 19 18 15 13 25 32 23 18 19 19 20 21 21 21 21 20 19 17 17 18 18 20 21 21 22 23 23 22 21 18 17 16 14 14 15 15 15 15 15 17 20 22 23 24 25 25 25 25 26 26 25 26 27 27 28 29 29 29 28 28 29 28 28 28 27 26 25 24 22 21 19 19 19 19 17 16 17 19 19 18 18 17 17
4 4 4 6 10 13 15 17 23 23 22 21 13 16 23 21 13 11 23 22 14 16 18 18 20 22 21 20 18 16 15 14 14 14 15 17 18 19 19 21 22 22 22 20 19 17 14 14 15 15 15 15 16 16 18 19 22 24 24 25 25 25 26 25 25 26 25 26 27 27 28 29 30 30 29 29 29 28 27 27 26 25 24 22 20 19 20 20 19 17 18 19 20 19 19 18 18
3 4 7 9 13 17 15 17 27 24 22 19 9 12 20 14 4 7 18 13 13 20 19 19 21 20 17 16 13 11 12 12 11 12 14 16 18 18 18 18 19 20 21 21 19 18 15 14 14 14 14 15 17 17 17 18 20 22 23 24 24 25 25 25 26 26 25 25 25 25 26 28 29 30 31 30 30 29 28 28 28 26 25 23 20 19 20 21 20 18 18 20 21 21 20 19 19
5 7 9 12 13 18 18 17 23 17 12 12 6 7 13 5 2 11 17 13 15 22 22 21 18 15 13 11 9 10 11 10 10 12 13 14 14 15 16 15 16 17 19 19 18 17 15 14 13 13 14 16 17 18 17 18 18 20 22 23 24 24 24 25 25 25 25 24 24 24 24 25 27 29 30 31 31 30 30 29 29 28 26 23 20 19 19 21 21 20 19 21 22 23 22 21 21
8 7 6 10 9 12 18 14 13 6 4 6 3 3 9 1 8 16 17 16 17 22 25 20 15 13 10 8 8 9 9 7 9 10 8 6 7 8 9 10 12 14 16 17 16 16 15 13 11 11 12 14 16 17 17 17 17 19 21 22 23 24 24 24 25 25 24 23 23 23 22 23 26 27 28 29 29 29 28 28 27 27 26 23 20 19 19 21 22 21 21 22 24 25 24 23 23
9 5 1 6 6 6 12 6 3 3 5 6 6 1 7 5 14 17 15 17 19 23 22 15 13 11 9 7 6 5 4 5 6 6 3 2 3 4 4 5 7 9 11 13 15 16 15 13 10 9 9 11 13 15 17 17 17 18 20 21 23 24 24 24 24 24 24 24 23 23 22 22 23 25 25 25 25 25 25 24 24 24 24 23 21 21 21 21 22 23 22 24 25 26 25 25 25
4 2 1 3 2 5 9 5 1 3 6 6 8 2 7 8 15 16 14 17 18 21 16 13 11 9 8 5 5 4 3 3 3 2 1 1 1 2 3 3 4 6 7 9 12 13 14 13 11 9 8 7 9 12 15 15 16 17 19 21 22 23 24 24 24 24 24 24 24 23 23 22 22 22 22 23 23 23 23 23 23 23 23 23 23 22 22 23 23 23 23 24 26 27 27 26 26
2 1 3 3 2 4 11 10 4 3 4 4 8 2 6 8 13 15 17 20 19 17 13 13 9 7 7 5 7 7 6 5 3 3 2 3 3 3 4 4 5 5 6 7 9 11 13 13 11 10 8 8 8 10 12 14 15 15 17 19 21 22 22 23 23 24 24 24 24 23 22 22 21 22 22 22 23 23 23 23 22 22 22 23 24 24 24 24 24 24 23 23 25 26 28 28 28
3 1 4 3 4 3 6 9 3 4 1 2 4 2 4 6 11 17 23 25 22 17 12 10 8 8 8 8 9 8 7 6 5 5 4 3 4 5 5 5 5 5 4 4 6 7 9 10 10 10 9 9 9 9 11 12 13 14 16 17 18 19 20 21 22 22 23 23 23 22 22 21 21 21 22 22 23 23 23 23 23 22 22 23 24 26 26 25 25 25 24 23 24 25 27 29 29
3 1 3 4 4 3 3 7 6 3 3 1 2 2 6 8 13 23 27 23 22 17 9 8 9 9 10 11 10 9 9 8 9 8 6 5 3 3 4 4 3 2 2 1 2 3 5 6 7 8 9 10 9 9 9 10 12 13 14 15 15 16 17 18 19 20 21 21 22 22 21 21 21 21 22 22 23 23 23 23 23 23 23 24 25 26 27 26 26 25 25 24 24 24 25 28 29
5 4 3 4 3 4 5 5 5 6 6 4 5 5 8 9 13 22 23 17 18 13 6 9 10 12 12 13 13 14 13 13 13 11 8 6 4 4 3 3 3 2 2 1 2 2 3 3 4 6 7 8 9 8 8 8 9 10 12 12 13 14 14 15 16 17 18 19 20 21 21 21 21 21 22 22 23 23 23 23 24 24 25 26 27 27 28 28 27 27 26 26 26 26 26 26 28
7 6 4 4 4 5 6 6 6 4 4 5 6 6 7 8 10 16 18 13 12 7 8 12 13 16 16 17 18 17 17 17 15 12 10 9 7 7 6 6 6 5 5 4 2 2 1 2 3 5 5 6 7 8 8 7 7 7 9 10 11 12 12 13 13 15 16 17 18 19 20 20 20 21 21 22 22 23 23 24 24 25 26 27 28 29 29 28 28 28 28 27 28 28 29 28 28
3 3 2 4 5 6 5 6 7 1 1 6 5 3 6 9 9 10 14 11 11 7 12 15 16 18 19 20 20 19 19 18 15 14 14 13 12 11 9 9 8 8 8 7 6 6 5 3 2 3 4 4 5 6 7 8 7 7 8 8 9 10 11 11 11 13 14 15 16 17 17 18 18 19 20 21 22 23 24 25 25 26 27 28 29 29 29 28 28 27 28 28 29 30 30 30 29
2 3 4 5 5 6 7 6 6 2 0 5 3 3 8 10 6 8 12 11 12 10 13 16 17 19 19 20 20 20 19 18 18 19 19 19 19 18 17 17 16 17 17 15 15 14 12 10 9 8 6 4 3 4 4 6 6 7 7 7 8 9 9 10 10 11 12 14 15 15 15 15 15 16 17 18 20 22 24 25 25 26 26 28 28 28 28 28 27 27 28 29 30 31 31 30 30
3 2 2 4 4 4 6 5 4 2 1 5 4 4 8 8 3 8 11 11 11 12 14 15 17 19 18 19 19 20 20 21 23 24 25 25 25 25 26 27 27 26 24 23 21 20 18 17 16 14 13 10 8 6 4 3 3 4 6 7 8 9 9 10 10 11 11 12 13 13 14 14 14 15 15 16 17 19 20 22 23 25 25 26 27 27 28 28 28 28 29 30 31 32 31 31 32
3 4 3 5 4 1 4 5 4 3 1 3 3 4 7 3 4 7 10 13 14 16 18 17 18 20 18 18 19 20 22 24 25 26 27 27 27 29 30 30 29 28 28 27 26 25 24 22 20 18 17 16 14 12 9 7 5 3 3 4 5 7 7 8 10 10 11 12 12 13 14 14 15 15 15 15 15 16 17 18 20 22 24 25 26 26 27 27 28 28 29 30 31 32 33 32 32
4 6 6 6 5 5 5 3 4 4 4 2 3 5 5 1 3 3 6 11 12 13 17 18 18 19 19 19 20 21 23 24 26 27 28 28 29 30 30 30 29 29 30 29 27 27 26 24 23 21 20 19 18 16 14 11 9 7 5 3 2 1 2 3 3 4 5 7 8 9 11 13 14 15 16 17 17 17 17 17 18 19 20 22 23 25 26 26 27 27 28 30 31 32 32 32 32
4 5 9 9 7 6 4 2 4 4 4 3 4 4 5 4 1 4 4 5 6 8 12 14 14 16 18 19 20 20 22 23 25 27 28 29 29 29 29 29 29 30 29 28 27 26 25 24 23 22 21 21 20 19 17 15 13 11 9 7 6 4 4 5 4 3 2 0 1 3 4 6 9 11 13 15 17 18 19 19 18 18 19 19 20 22 23 25 25 26 27 28 30 30 31 32 33
3 5 7 7 5 4 3 2 3 1 3 3 3 1 5 6 4 5 5 4 4 5 8 10 12 15 16 17 18 19 21 23 24 26 27 28 29 28 29 28 28 29 28 26 24 23 23 23 22 21 21 21 21 20 18 17 16 15 13 11 10 8 8 8 7 5 5 4 3 2 2 1 1 3 5 8 10 13 15 17 18 18 19 19 20 20 20 21 22 23 24 26 27 28 29 32 33
3 4 5 7 6 5 4 4 2 3 2 4 3 2 3 5 5 5 7 6 4 4 5 7 10 13 14 15 17 18 20 22 24 26 27 28 28 28 28 27 27 27 25 23 22 22 22 21 21 21 21 21 21 19 18 18 17 17 15 13 12 11 10 9 7 6 5 5 5 5 6 5 4 3 2 1 3 6 8 11 13 15 16 18 19 20 21 21 21 21 22 23 25 26 27 30 31
6 5 6 6 6 6 5 5 2 1 1 5 4 1 2 5 5 2 5 5 3 4 4 4 8 10 13 14 16 18 20 22 24 26 27 27 28 27 26 25 25 23 21 21 21 20 20 20 19 19 20 20 20 19 18 18 18 17 16 15 14 13 11 9 8 7 6 6 6 7 7 7 6 5 3 2 0 1 2 4 6 9 11 14 16 18 20 22 23 23 23 22 23 24 25 27 29
4 5 5 4 4 4 4 5 3 2 1 5 6 3 2 5 6 2 2 4 5 5 4 4 8 9 11 13 15 17 20 22 24 26 26 26 26 25 23 22 21 21 20 19 18 18 18 17 17 17 19 19 18 18 17 17 17 17 17 17 16 15 13 11 10 9 9 8 8 8 8 8 8 7 6 6 6 5 3 2 3 4 6 8 11 14 16 19 21 23 24 25 25 25 25 26 27
6 6 5 5 5 4 4 2 4 2 3 6 8 9 5 3 5 3 2 3 4 8 5 5 8 10 12 14 15 18 20 22 24 24 24 23 23 22 19 19 19 18 17 16 15 15 15 15 15 16 17 16 16 16 15 15 15 14 15 15 15 15 14 12 12 12 12 11 10 10 10 9 9 9 9 10 9 9 8 6 5 4 5 6 8 10 12 15 17 20 22 24 26 27 27 27 27
6 5 4 3 4 4 4 4 3 1 5 6 5 6 5 4 4 3 2 5 2 7 9 8 10 12 14 15 16 18 20 22 23 23 22 21 20 18 16 16 16 15 14 13 14 13 13 14 13 13 14 14 14 14 13 13 13 13 13 12 12 12 11 11 11 12 13 12 12 11 10 9 9 9 10 10 11 11 11 10 9 8 7 7 8 9 11 13 15 17 19 21 24 26 27 28 28
5 4 5 4 2 3 3 3 0 3 6 4 2 4 2 5 4 3 4 7 7 3 12 15 16 17 17 17 18 19 20 21 21 21 19 18 16 14 13 13 13 12 12 12 12 11 11 11 10 10 12 13 12 12 11 11 11 12 12 12 12 12 11 11 11 12 13 13 13 12 11 11 11 11 11 11 12 12 12 12 12 12 11 11 11 11 11 12 14 16 18 20 21 23 24 26 28
4 5 5 4 2 1 3 4 1 3 5 2 2 3 2 4 2 4 4 6 5 7 16 19 20 21 20 20 19 20 20 20 19 18 16 14 13 11 10 11 11 11 10 10 10 10 10 10 9 10 11 11 11 10 10 11 11 12 12 12 12 12 12 12 13 14 14 14 13 13 13 13 14 14 14 14 13 13 12 12 12 12 13 13 13 14 14 14 14 15 17 19 20 22 23 24 26
4 4 5 4 4 4 4 4 3 4 4 3 1 1 2 3 1 3 3 5 9 14 19 19 20 21 21 20 20 20 20 18 16 14 13 12 10 10 9 9 9 9 8 8 8 8 8 8 9 9 10 10 9 9 10 11 12 13 12 13 13 13 14 14 14 15 14 14 13 13 13 13 14 14 14 14 14 13 13 13 13 13 13 13 14 14 15 15 16 16 16 17 19 20 23 24 26
2 3 5 2 4 5 2 3 5 3 3 3 2 2 3 3 1 2 4 7 10 13 16 18 18 18 19 20 20 19 18 16 14 11 10 9 9 8 7 7 7 7 7 6 6 7 6 7 8 8 9 9 9 10 10 11 12 12 11 12 12 13 13 13 14 14 14 14 14 13 13 14 14 14 14 14 14 14 14 14 14 14 14 14 15 15 16 16 17 17 17 17 18 19 21 23 24
2 3 3 4 4 6 3 2 0 3 1 4 2 2 2 0 1 0 3 5 5 8 10 14 16 16 18 19 19 18 16 14 11 9 8 8 7 6 5 5 5 5 5 5 5 6 7 8 8 8 8 8 8 9 10 11 11 11 11 12 12 12 12 12 12 13 13 13 13 13 14 14 15 15 16 16 16 15 15 15 15 15 15 15 15 16 17 18 18 18 18 18 18 19 20 21 22
5 3 5 3 1 4 4 1 2 2 2 4 1 3 3 1 2 1 2 3 3 3 5 9 12 14 17 18 18 17 14 12 9 7 6 6 5 4 4 4 4 4 5 5 6 7 8 8 8 8 7 7 8 8 9 9 9 9 10 10 11 12 12 12 12 12 12 12 13 13 13 14 15 16 17 17 18 17 17 17 17 18 18 17 17 17 18 19 20 20 21 21 20 20 21 21 21
4 3 3 3 2 1 1 2 2 1 3 4 4 4 3 4 4 3 6 9 7 5 6 7 10 14 17 18 18 16 13 10 8 7 6 6 5 4 4 3 4 5 5 5 6 6 5 5 5 6 6 7 7 6 6 6 6 6 7 8 8 9 10 10 11 11 12 12 13 14 14 15 16 17 17 18 19 19 19 20 20 21 21 21 21 20 20 21 21 22 23 23 23 23 24 23 22
3 1 1 1 2 3 2 2 3 3 3 4 5 5 4 5 5 7 10 10 10 8 7 7 12 17 19 19 17 15 12 9 8 7 6 6 5 5 5 4 4 4 3 4 5 5 5 6 5 5 5 5 5 4 4 5 5 6 7 7 8 8 9 10 10 11 12 13 14 15 15 16 17 18 18 19 20 20 21 21 22 23 24 24 24 24 24 25 24 24 25 25 25 26 26 27 26
2 1 2 1 1 1 1 1 2 3 3 3 4 5 5 4 3 6 8 8 11 12 10 10 16 21 21 18 16 14 11 9 8 8 7 7 6 6 6 4 3 4 6 7 8 8 8 7 7 6 6 5 6 6 7 8 8 9 10 10 11 12 12 13 14 14 14 15 15 16 16 17 18 19 20 20 21 21 22 23 23 24 25 26 27 27 27 28 28 28 28 27 28 28 29 29 29
5 4 4 4 2 2 2 4 1 2 3 4 3 5 6 4 2 3 5 7 12 16 15 14 20 24 22 18 15 13 12 9 9 9 8 8 8 7 6 6 7 9 10 10 9 8 8 8 8 8 9 9 9 10 10 11 12 13 14 15 15 16 18 19 19 19 19 19 19 19 19 20 19 20 21 22 22 23 23 24 25 25 26 27 28 28 29 30 31 31 31 31 30 31 31 31 32
Wind_Direction
317 312 308 305 314 301 311 349 42 359 63 81 319 77 244 259 149 112 255 278 250 240 246 300 241 222 244 217 226 240 221 196 180 141 207 200 138 197 225 202 202 181 179 185 187 186 190 193 197 202 206 210 212 212 214 216 216 216 209 198 193 190 187 185 181 180 181 180 178 176 175 177 181 184 184 186 186 184 180 178 179 173 168 167 164 161 175 185 179 171 161 149 161 175 149 136 130
319 311 313 303 312 318 335 20 77 350 43 62 308 184 253 326 45 163 200 209 197 200 64 53 220 226 243 264 262 271 269 250 225 227 218 177 153 188 207 231 200 204 192 190 194 192 194 195 198 202 206 210 213 215 216 219 221 219 206 198 198 194 191 189 185 185 186 183 182 181 184 187 190 195 197 199 196 191 183 179 179 175 171 173 174 169 179 191 187 184 177 179 197 200 180 166 156
326 312 317 295 319 27 46 33 81 53 65 81 286 259 305 30 181 209 212 205 170 123 92 120 127 202 217 287 243 175 273 249 216 229 220 193 202 197 235 255 197 207 213 202 200 198 200 200 201 203 207 210 213 215 217 221 223 220 207 202 201 196 194 192 191 191 189 185 185 189 193 195 203 214 217 210 204 199 188 181 179 175 173 174 179 180 189 195 189 189 191 205 214 211 206 194 182
334 322 337 342 39 42 54 48 111 109 106 159 280 283 270 186 208 231 231 208 146 119 128 139 75 218 238 308 242 228 243 208 193 212 233 235 242 243 256 236 207 206 207 213 209 206 205 204 205 205 208 211 214 216 217 222 223 220 212 207 205 200 196 194 195 195 194 192 193 197 199 205 218 227 221 206 200 200 192 184 179 174 172 177 182 185 198 200 189 191 208 226 230 224 225 217 207
350 356 12 23 55 42 72 74 100 95 170 183 144 270 253 207 208 238 246 193 156 124 53 124 9 272 277 280 248 242 217 197 206 234 269 275 275 273 264 223 220 212 205 217 217 213 209 208 210 209 210 212 215 217 218 221 221 220 217 214 210 205 201 198 198 198 197 198 202 205 208 214 222 221 206 192 188 189 187 181 179 178 176 180 186 191 201 203 194 210 231 242 245 238 238 235 226
36 44 38 39 59 62 94 64 359 304 233 170 163 250 243 224 207 195 153 158 159 108 307 156 27 297 288 282 259 252 224 217 271 273 295 294 297 299 286 241 223 216 210 217 223 223 214 212 212 213 213 214 216 218 220 221 221 220 220 220 215 210 207 204 203 204 203 204 208 209 213 214 208 214 206 192 184 181 182 180 182 185 186 189 195 204 211 212 217 243 253 251 252 250 249 244 237
68 46 33 54 54 34 92 103 226 258 248 173 179 227 227 223 196 111 80 130 127 87 197 208 167 305 294 302 277 263 252 258 279 284 295 308 316 320 315 274 227 219 215 215 223 229 222 217 215 215 216 217 218 219 221 222 222 221 221 220 219 216 211 209 208 209 210 211 214 212 215 213 203 213 212 200 191 185 186 186 188 193 199 203 210 219 224 230 244 259 262 257 251 250 250 247 244
58 41 33 69 41 25 84 102 235 221 250 227 211 220 218 199 158 91 69 122 344 235 217 238 208 41 281 283 285 285 276 258 260 264 246 308 338 344 342 323 247 218 216 217 217 226 230 223 219 218 218 220 222 222 223 223 223 223 222 220 219 218 216 215 214 213 213 214 215 211 211 213 207 213 217 207 199 196 193 193 197 204 213 221 230 236 241 246 255 260 260 257 249 245 247 247 249
39 37 37 65 54 25 38 327 285 239 262 285 281 263 211 155 114 94 52 354 359 276 240 236 213 317 295 281 279 292 289 248 240 249 220 237 357 357 347 341 303 226 217 219 217 221 228 230 224 221 220 223 225 225 226 225 225 223 222 221 220 219 218 219 219 219 218 218 218 215 215 215 210 214 219 214 206 205 204 201 206 217 225 235 244 250 256 259 264 267 260 256 253 245 245 247 249
38 37 47 72 70 30 356 308 301 290 270 290 290 293 36 105 98 93 48 7 27 356 273 231 222 272 295 290 286 296 294 250 237 241 236 243 285 2 353 347 325 265 229 221 220 221 224 232 230 225 223 224 227 228 228 228 229 226 225 223 222 221 219 220 221 222 223 222 223 225 227 224 217 216 220 219 213 211 211 213 219 232 239 246 254 259 263 266 273 275 273 274 265 251 248 248 248
39 24 42 74 61 37 321 274 289 290 283 303 294 286 17 63 94 87 43 28 13 19 308 241 236 274 291 287 289 297 298 256 233 233 243 252 258 321 353 347 332 293 252 232 226 223 223 228 232 231 226 226 229 229 228 230 232 231 229 226 224 223 222 222 223 224 225 225 227 230 234 229 219 219 222 223 221 216 219 226 234 247 257 264 272 271 269 269 270 274 281 283 266 253 249 247 244
42 356 46 88 103 194 213 255 277 282 298 314 288 296 12 29 85 89 40 36 344 2 308 255 251 304 301 287 289 293 303 272 234 238 249 252 251 265 316 329 322 299 263 243 233 228 225 226 229 233 230 229 230 231 230 231 234 234 233 232 228 226 224 225 225 227 228 228 231 234 237 231 219 219 223 226 226 225 229 236 243 254 265 277 283 277 274 269 265 272 278 265 253 247 243 238 231
65 73 74 96 183 188 208 252 277 311 329 294 244 291 342 333 355 287 217 357 320 344 314 234 250 315 281 282 289 291 302 285 243 251 253 250 245 249 282 305 302 289 267 253 244 235 230 226 226 230 233 233 232 232 231 232 235 236 236 236 234 232 228 227 227 228 230 230 232 235 239 235 222 220 224 227 230 233 235 239 246 257 270 283 285 278 278 271 265 272 261 238 239 237 228 222 215
61 122 94 95 271 344 211 266 314 25 332 278 265 289 313 323 325 292 280 312 305 326 289 237 281 303 288 288 292 298 324 328 289 269 256 249 245 245 265 285 287 277 264 258 251 243 236 231 228 228 232 234 236 234 231 232 235 237 237 238 238 236 232 230 230 230 232 232 233 235 238 237 228 223 225 230 234 237 239 242 249 259 274 283 282 279 277 272 270 264 233 225 228 221 215 211 208
71 71 90 106 3 340 235 250 335 102 240 270 292 304 318 328 308 291 289 296 306 304 244 256 274 284 290 282 286 301 314 310 304 289 270 254 246 249 264 273 278 273 261 257 254 251 243 236 232 229 230 232 236 238 236 234 235 237 237 238 239 238 236 234 234 234 235 236 235 235 237 237 230 226 227 231 234 238 242 247 254 262 275 279 276 275 273 271 266 238 223 221 217 211 210 208 207
82 73 71 65 333 322 241 225 81 83 282 276 311 306 313 322 296 287 300 298 299 296 272 265 266 268 273 277 288 297 300 299 297 291 278 261 252 253 266 272 273 272 264 262 261 259 251 242 236 231 231 232 234 237 240 239 237 238 237 237 238 239 238 235 236 237 238 239 238 236 236 235 229 226 228 231 234 238 243 250 258 266 275 275 270 268 268 269 253 226 223 217 214 211 212 211 209
88 84 72 27 236 223 230 209 127 67 277 298 321 308 301 304 281 282 299 291 294 297 288 278 270 271 276 281 292 298 299 299 295 289 278 266 261 259 266 272 273 274 272 271 270 265 256 248 241 236 234 233 234 235 237 240 240 240 238 237 236 238 238 236 236 237 239 240 238 235 234 233 226 225 229 233 235 238 243 252 260 270 274 270 266 262 260 260 241 230 224 215 217 217 217 215 212
117 88 107 219 205 201 194 183 182 178 262 300 316 304 273 293 297 313 302 282 295 298 293 289 280 277 280 284 290 297 302 302 300 297 285 272 266 267 271 273 274 276 276 277 277 273 264 255 247 241 237 235 235 235 236 237 239 241 240 238 236 236 236 235 234 235 237 238 236 233 232 232 227 225 228 232 236 240 246 254 262 269 271 267 264 260 255 248 238 234 226 220 224 224 224 221 216
162 112 133 226 203 212 218 212 237 241 268 284 302 297 270 290 302 316 302 286 301 299 295 297 292 287 289 290 290 296 300 298 301 303 296 285 278 278 280 279 278 278 281 285 286 282 272 260 250 244 241 239 237 236 236 237 238 240 242 242 239 237 235 235 234 233 234 235 234 233 232 231 229 227 229 233 236 243 250 256 263 266 266 264 262 258 254 245 235 234 229 226 230 232 231 227 223
205 136 157 244 219 237 270 270 275 284 291 290 303 301 287 297 303 301 296 302 300 281 287 294 295 298 301 301 299 298 296 292 296 298 295 292 289 287 284 282 281 282 285 288 288 283 274 260 249 245 243 241 240 239 238 237 237 238 240 243 243 240 237 235 235 234 233 234 234 234 232 230 230 230 232 234 236 244 252 257 261 264 264 262 259 256 253 246 235 233 233 232 234 237 237 234 231
199 158 188 237 208 237 274 280 290 302 313 307 307 308 299 304 304 292 301 315 294 277 286 289 292 302 306 306 304 300 295 290 292 294 292 291 291 290 286 284 283 283 281 276 278 282 277 265 253 245 242 241 240 240 239 238 238 238 239 241 243 242 241 239 237 236 234 234 233 233 233 231 231 233 234 236 238 246 253 258 262 264 264 262 258 255 254 249 237 234 237 238 237 239 241 239 235
184 210 230 244 215 224 274 282 297 306 312 310 310 308 300 307 302 293 288 263 272 287 296 298 297 304 309 309 306 300 295 293 293 292 292 293 293 292 291 288 285 281 276 273 279 282 276 269 260 249 242 240 239 240 241 241 240 239 240 241 242 241 241 242 240 239 237 236 234 234 234 232 232 234 235 238 243 249 254 259 262 264 265 262 258 255 255 250 241 237 239 240 240 241 243 243 240
225 258 245 254 252 249 272 280 294 304 305 301 300 294 296 305 299 299 282 263 279 293 300 302 303 308 312 310 307 302 300 298 299 298 297 296 294 294 294 292 289 284 279 278 283 281 274 269 263 255 246 241 239 240 241 242 242 242 242 241 242 241 241 242 243 243 241 239 237 235 234 233 233 234 236 240 245 250 254 258 262 264 265 263 260 256 254 252 244 238 238 241 242 242 245 245 244
215 260 262 267 270 261 270 279 289 296 293 290 294 292 291 290 290 301 287 280 288 299 302 304 308 315 314 312 312 311 310 307 307 307 303 298 295 295 293 290 286 283 279 280 283 283 281 276 268 263 258 251 244 242 242 242 242 243 243 242 241 241 242 243 244 246 245 243 241 239 237 235 235 236 239 243 247 250 254 257 260 262 263 263 261 257 254 252 247 239 236 242 245 244 246 248 247
195 233 272 282 285 283 288 293 292 292 290 291 295 288 283 283 284 285 281 284 296 305 303 306 313 316 317 321 323 320 317 312 308 307 301 294 292 292 290 284 277 272 272 278 282 285 289 285 276 271 269 267 260 252 248 245 244 244 244 243 242 241 242 243 245 247 248 247 246 243 241 238 236 237 241 244 247 250 253 256 259 261 263 263 261 257 255 253 249 242 236 242 247 246 247 248 249
202 214 276 288 291 298 303 301 293 292 290 289 290 284 285 289 292 276 274 285 307 306 303 309 314 314 322 334 336 334 329 319 309 301 294 290 290 290 289 285 278 270 264 265 270 274 283 284 282 281 279 277 273 267 262 256 251 248 247 247 246 244 244 244 245 246 247 248 248 248 247 244 242 242 243 245 247 250 253 256 258 261 263 264 262 257 254 253 251 244 238 241 248 248 247 248 248
282 299 309 300 303 305 304 295 289 291 292 285 261 266 282 289 306 265 276 297 309 299 303 311 314 319 338 353 355 360 347 334 320 302 293 290 291 290 287 283 280 273 264 262 264 268 272 279 286 289 285 280 276 274 273 269 262 257 254 252 250 249 248 247 247 246 247 247 248 250 251 251 250 249 248 249 250 252 254 257 260 262 265 266 264 260 254 252 250 246 239 239 246 250 249 247 247
317 333 322 307 315 309 296 285 285 290 294 282 229 252 287 295 187 250 274 305 306 298 303 309 319 338 358 5 1 357 342 333 320 307 303 298 295 293 290 285 279 273 268 266 265 267 269 274 283 288 286 281 278 278 278 277 274 268 262 258 255 253 252 251 250 250 249 249 249 249 251 253 254 253 253 254 255 256 258 260 262 265 266 266 266 265 258 251 248 245 239 236 241 245 246 245 246
317 340 327 305 337 316 290 281 281 278 271 271 177 289 306 253 221 255 281 300 295 294 299 312 341 3 9 5 354 347 334 325 313 313 323 318 301 293 292 289 280 272 268 266 261 261 262 263 266 273 278 279 280 281 280 278 278 275 270 265 262 259 256 255 254 255 254 254 252 251 252 254 254 254 255 256 258 260 262 264 266 268 268 267 267 268 264 254 247 243 239 235 238 243 244 243 245
307 331 348 303 352 317 284 288 296 289 276 248 152 252 290 255 248 262 292 298 292 294 302 336 8 16 24 16 3 354 333 319 318 333 348 339 312 297 295 290 282 273 266 259 254 253 255 256 256 258 263 273 281 281 279 278 277 275 272 268 265 263 260 258 258 257 258 257 256 256 257 258 256 256 256 258 260 263 265 267 270 272 271 269 268 269 269 262 250 244 241 238 239 243 245 245 245
303 334 27 320 328 278 286 304 297 312 303 218 158 201 265 271 275 278 298 301 297 297 316 10 19 22 34 31 42 51 48 16 2 38 32 6 349 313 314 295 284 277 267 255 249 249 253 258 258 253 247 257 272 276 278 278 276 274 272 269 267 265 263 261 260 259 259 259 259 259 260 261 260 260 261 262 263 264 266 268 271 274 274 272 271 271 273 269 257 248 245 242 241 242 245 246 246
17 327 308 326 207 261 302 301 228 217 294 168 147 227 268 270 281 291 304 303 299 302 336 24 31 45 57 65 77 80 80 78 72 67 42 11 351 330 323 303 296 287 277 262 251 249 251 254 253 245 233 232 248 262 268 270 270 270 269 269 267 266 265 264 263 262 261 260 260 260 262 263 263 264 266 266 267 266 267 269 271 273 273 273 273 273 274 274 266 257 252 248 245 243 243 246 247
354 198 250 266 221 256 315 305 266 184 250 124 150 243 279 277 283 295 300 299 304 316 349 37 65 74 81 85 86 90 86 86 74 59 44 14 346 335 327 312 307 296 285 265 249 245 242 240 236 232 224 221 228 241 252 258 261 262 262 263 263 264 264 264 264 263 262 261 260 261 262 264 265 266 267 268 269 270 270 271 272 271 270 271 272 274 275 276 272 265 261 258 253 249 245 244 247
312 276 230 244 232 233 285 301 321 28 56 340 272 243 256 277 288 292 297 305 316 327 4 72 91 89 93 92 86 82 75 70 61 53 46 35 16 356 346 336 337 323 305 254 231 225 224 223 223 225 223 220 223 230 240 249 254 257 258 259 259 259 260 260 261 262 262 262 262 262 263 263 264 265 266 267 269 270 271 272 272 271 270 269 270 272 274 275 273 269 269 268 264 259 252 248 248
251 255 245 268 262 248 255 272 305 351 8 316 301 286 265 282 288 292 306 326 327 334 62 104 106 102 98 90 82 75 70 66 60 55 53 52 48 44 39 44 48 54 80 117 147 170 192 193 205 217 222 223 223 225 230 238 249 255 257 259 259 259 258 257 258 258 260 261 262 263 263 264 263 263 264 266 267 268 269 270 271 272 271 271 270 270 271 272 273 273 275 274 271 267 263 258 253
228 239 229 261 268 264 257 256 274 322 347 296 283 278 274 287 284 299 323 340 335 345 109 111 102 98 91 86 81 75 72 68 65 65 66 68 70 75 82 81 80 88 93 95 105 118 139 152 199 208 207 216 222 223 222 224 230 240 248 252 254 255 255 254 253 254 254 256 258 260 262 263 263 263 263 264 265 266 268 269 269 270 271 270 270 270 271 272 274 275 277 277 275 273 270 266 262
230 255 263 260 257 271 266 262 279 333 2 274 267 274 285 285 285 322 346 5 9 36 106 100 91 90 85 84 81 77 77 75 76 78 77 79 79 83 88 89 93 92 85 78 70 63 62 75 130 158 163 193 209 210 210 212 212 219 232 240 244 248 249 250 249 249 251 251 252 254 257 259 261 263 264 264 265 266 267 268 268 268 269 270 271 272 274 275 274 275 275 275 273 272 271 270 268
226 246 268 275 256 262 257 251 281 338 152 264 298 342 294 287 306 360 18 36 29 47 93 91 90 90 86 87 84 83 85 86 89 85 84 85 83 85 86 87 87 81 77 74 69 67 67 71 75 79 88 113 145 161 188 203 203 205 216 224 230 237 241 244 245 246 247 249 251 253 255 259 261 263 264 265 265 266 266 267 268 268 269 270 271 273 273 273 272 272 271 270 270 269 269 270 268
196 203 226 264 255 279 281 272 304 349 195 268 318 338 280 286 15 34 42 62 55 66 89 94 97 94 89 90 89 90 91 89 90 87 86 87 86 87 86 84 82 80 79 77 75 74 73 72 69 68 70 74 83 92 112 144 171 196 211 220 226 232 235 238 240 240 242 245 247 249 251 253 255 257 259 261 262 264 264 264 265 265 266 267 269 270 270 270 270 269 269 269 268 268 268 267 265
207 199 199 249 241 213 276 288 320 325 317 278 313 316 276 279 76 59 61 79 77 79 89 91 94 93 91 93 92 92 90 87 89 89 90 91 90 89 87 85 85 84 82 80 78 76 74 73 71 70 69 69 71 72 75 83 91 117 165 206 222 229 232 237 241 243 244 244 244 245 245 245 245 246 248 252 255 259 262 263 263 262 262 263 265 266 267 268 268 268 269 269 268 267 266 267 266
245 218 212 239 239 214 225 280 325 330 351 359 7 340 297 262 118 103 81 85 79 81 87 84 86 92 93 94 92 90 89 89 90 91 93 93 92 90 89 89 87 85 82 78 76 75 74 74 73 73 72 72 72 71 69 70 72 80 89 107 137 181 211 222 231 241 245 242 241 242 245 245 245 244 244 246 248 251 255 258 260 260 261 262 263 265 266 267 268 267 268 268 268 268 269 270 269
283 237 216 220 230 228 220 354 13 15 338 326 33 8 296 311 24 171 140 85 72 74 78 77 82 90 93 91 89 89 90 92 92 93 94 94 93 93 92 91 87 84 80 77 75 74 73 73 73 73 73 74 74 74 74 74 76 78 80 84 85 83 79 79 75 62 51 105 197 227 241 245 247 247 246 246 247 249 251 253 254 254 256 259 263 265 267 269 268 267 267 268 268 269 270 270 269
278 248 208 193 183 179 161 86 59 89 252 281 49 103 261 313 322 200 168 110 91 76 66 74 81 85 90 91 91 93 93 94 96 96 96 95 95 94 91 88 86 82 80 78 76 74 73 71 71 71 70 71 72 74 75 76 78 79 78 79 80 80 75 70 65 53 44 49 61 78 95 122 201 234 244 248 249 251 252 253 254 252 251 253 257 262 266 269 271 270 269 268 269 269 269 268 268
235 238 140 134 140 159 159 116 136 217 254 315 358 151 243 293 280 215 159 128 106 88 69 73 80 84 90 93 96 97 97 97 97 96 95 94 93 91 87 85 83 80 78 76 73 70 69 68 67 67 67 67 68 68 70 71 73 75 76 75 75 75 71 68 59 42 34 34 38 53 67 76 86 99 120 194 231 244 250 255 258 259 258 256 256 258 260 263 266 269 269 270 269 268 268 268 269
237 206 126 124 141 154 146 119 153 254 11 307 293 147 251 261 271 271 146 167 171 140 139 102 91 93 98 100 101 101 101 100 98 97 95 92 91 89 86 84 81 79 76 71 69 67 65 65 65 65 66 66 65 64 63 64 66 69 72 72 71 71 67 65 59 45 37 28 23 31 43 52 59 65 65 62 64 242 245 249 258 263 265 264 263 261 259 259 259 262 264 267 269 269 268 268 269
208 153 103 62 74 92 95 112 117 38 8 251 234 183 207 262 279 292 158 219 213 162 159 131 112 109 108 109 109 108 105 102 100 98 96 93 91 89 87 85 82 78 74 70 68 67 66 65 64 64 66 66 65 65 63 65 66 67 69 70 70 69 67 66 66 62 54 39 23 18 20 25 28 27 26 24 23 21 5 320 284 273 273 273 272 269 264 260 258 257 258 260 263 265 267 267 267
130 102 58 25 24 43 46 74 88 58 279 251 221 193 185 266 281 229 179 264 202 156 153 147 129 121 119 118 117 114 110 106 104 101 99 96 93 91 89 85 81 78 75 72 71 69 68 66 64 65 68 68 67 67 66 66 67 66 67 68 68 68 67 66 66 65 62 54 41 27 16 11 9 9 9 9 12 15 13 5 347 320 299 288 285 281 275 269 262 259 257 256 257 259 261 263 265
105 85 67 40 340 9 23 357 47 112 253 267 231 180 165 222 265 283 316 327 287 164 163 164 147 133 129 127 125 119 114 111 108 105 102 99 95 93 90 85 83 81 78 76 73 71 70 69 66 65 69 69 67 66 64 63 64 63 62 61 60 59 57 55 54 56 55 53 49 40 30 25 21 19 16 13 13 11 11 11 3 350 329 310 298 291 285 279 272 266 262 258 257 257 257 259 260
84 97 90 76 323 350 357 305 11 215 252 272 174 134 156 233 246 320 334 338 329 172 155 155 149 141 138 135 131 125 120 117 113 109 105 101 97 93 89 85 84 81 79 78 76 74 72 72 68 66 70 70 65 62 59 56 55 54 52 50 50 49 46 45 45 47 46 43 40 32 27 27 26 27 26 25 24 17 12 9 6 1 353 339 326 315 303 292 282 275 270 265 263 262 261 260 259
137 143 129 123 146 182 267 264 271 262 268 281 153 133 289 265 283 339 331 338 356 110 135 144 143 140 139 138 135 129 125 121 116 111 107 101 97 93 88 83 80 78 79 79 78 75 73 72 68 65 70 68 62 57 51 48 48 47 45 43 44 43 41 40 39 40 39 35 31 24 19 18 16 18 19 19 19 16 11 7 2 358 354 349 343 336 328 317 303 291 282 275 271 268 266 265 263
175 156 138 146 159 168 215 225 209 249 280 297 251 187 217 219 290 329 357 35 66 104 124 134 136 139 140 138 136 132 128 123 117 113 109 104 100 95 89 84 81 81 82 81 80 78 73 71 67 63 64 60 53 49 44 42 43 42 41 40 39 37 35 34 34 34 32 29 25 20 15 13 12 12 13 11 10 8 6 3 358 353 349 346 342 339 336 331 324 316 306 295 286 278 272 269 268
193 128 116 166 188 162 179 207 180 184 292 297 232 219 208 174 218 344 61 67 79 103 120 130 136 144 145 142 140 135 131 127 123 119 112 108 105 99 92 87 86 88 89 88 87 86 80 75 70 61 58 52 45 43 40 39 38 35 35 34 32 30 28 27 27 26 25 22 17 13 10 8 6 4 4 3 1 360 359 356 353 349 345 341 338 336 334 332 330 327 322 316 309 298 287 279 274
157 128 177 215 182 132 121 264 84 96 256 272 215 229 290 27 224 325 69 73 86 102 122 138 147 152 153 151 146 140 137 134 130 123 116 116 114 107 101 96 98 101 100 95 92 92 87 80 74 66 61 56 50 45 41 39 35 30 28 27 24 22 20 19 18 16 14 11 5 1 359 356 353 352 352 352 352 351 350 348 346 344 340 337 332 330 329 328 328 327 324 322 320 314 306 299 291
131 174 214 203 119 85 98 229 340 39 246 273 262 218 240 237 238 271 104 154 161 150 155 158 162 167 166 160 152 147 143 141 139 134 131 135 132 124 122 118 120 119 112 109 105 101 94 87 82 76 71 66 59 51 45 39 32 26 21 17 13 11 9 8 7 5 2 358 352 350 348 344 341 340 340 339 338 338 339 338 337 336 335 333 330 327 324 322 321 321 321 321 320 316 312 311 307
130 186 201 119 130 259 89 159 215 224 239 272 291 266 233 209 202 193 203 198 183 180 186 183 185 185 178 167 159 156 151 151 156 153 156 159 154 156 155 150 147 139 135 130 124 117 112 107 102 94 84 76 67 57 48 37 26 19 10 5 0 355 354 352 350 349 345 341 339 338 337 335 334 332 331 331 329 328 328 327 327 326 326 326 325 325 323 319 317 315 315 315 316 315 313 312 311
71 85 327 68 159 182 166 166 173 187 226 256 290 298 274 234 199 186 202 191 167 175 190 197 198 190 181 172 166 165 160 164 173 171 179 183 178 187 191 193 188 169 157 143 129 118 113 112 109 102 88 76 65 45 31 15 4 359 351 348 345 340 340 337 333 332 330 328 328 328 327 326 326 326 324 324 324 323 322 321 320 320 319 318 318 319 319 318 316 314 313 311 311 311 310 310 309
117 165 231 252 213 166 230 230 135 144 188 222 267 278 267 252 193 184 198 175 164 180 182 190 197 189 182 176 172 175 174 176 186 189 196 200 204 217 217 211 184 138 117 114 108 98 92 83 72 64 49 38 25 10 4 357 353 352 348 344 340 338 336 334 332 330 328 327 326 325 324 322 322 323 322 321 321 320 319 317 315 315 314 314 314 314 314 313 312 312 311 310 310 308 306 306 305
152 178 199 191 170 145 248 264 238 140 184 190 216 261 273 263 217 200 193 168 176 186 178 182 193 189 185 184 180 185 189 189 196 202 208 213 217 220 200 163 140 126 115 107 95 80 67 51 38 28 17 10 4 358 354 350 347 345 342 340 338 336 334 333 332 331 330 329 328 326 325 322 321 320 320 321 320 318 317 315 313 312 311 311 311 311 311 310 309 308 307 307 307 307 306 304 303